Location: Newark
(45.1000°N, 8.5833°E)
Time: 20:20:53
(UTC+00:00)

ISS - Pass Details

Date: 24 September 2019
Orbit: 411 x 421 km, 51.6° (Epoch: 13 October)

Event Time Altitude Azimuth Distance (km) Brightness Sun altitude
Rises 19:21:49 0° 274° (W) 2,341 1.3 -21.8°
Reaches altitude 10° 19:24:04 10° 286° (WNW) 1,480 0.1 -22.1°
Maximum altitude 19:27:02 29° 349° (NNW) 786 -2.1 -22.6°
Enters shadow 19:27:13 29° 356° (N) 790 -2.2 -22.7°
